Union Aéronautique de la Côte d'Azur

Union Aéronautique de la Côte d'Azur
UACA
Approuvé A.T.O. EASA – N°FR.ATO.0108

UNION des aéroclubs
Cannes “Ailes d’Azur”, Nice “Côte d’Azur”, Grasse “St Exupery”, ACCA “Francis Séverac”

Un cache-pitot se trouve à bord de chaque avion. Pensez à le mettre en place à la fin de chaque vol !

Avant de quitter l'avion, vérifiez que vous n'emportez pas la checklist

Un vol ne s'entreprend qu'avec un pare-brise parfaitement propre, il en va de votre sécurité, et de celle des autres

Après chaque vol, merci de mettre en place les pares-soleil!


Météo à Cannes:
METAR
LFMD 240600Z AUTO 36004KT 310V040 CAVOK 16/13 Q1017 TEMPO 4000 BR OVC006 BECMG 10010KT =

TAF
LFMD 240200Z 2403/2503 VRB03KT CAVOK PROB30 TEMPO 2405/2407 4000 BR OVC006 BECMG 2407/2409 10010KT BECMG 2414/2416 18010KT BECMG 2420/2422 09010KT TEMPO 2500/2503 BKN006 =

SR / SS: 03:54 / 19:04 UTC (LFMD 2018-05-24)